Location: *
(44.3925°N, 5.4708°E)
Time: 01:09:17
(UTC+00:00)

Cosmos 2227 Rocket - Pass Details

Date: 18 September 2019
Orbit: 837 x 847 km, 71.0° (Epoch: 22 October)

Event Time Altitude Azimuth Distance (km) Brightness Sun altitude
Rises 19:00:54 0° 176° (S) 3,378 5.1 -14.4°
Reaches altitude 10° 19:03:33 10° 166° (SSE) 2,449 4.3 -14.8°
Maximum altitude 19:08:30 33° 104° (ESE) 1,389 2.8 -15.7°
Drops below altitude 10° 19:13:29 10° 43° (NE) 2,470 4.4 -16.5°
Sets 19:16:08 0° 34° (NE) 3,411 5.2 -16.9°
